Location: Slanting_Bridge
(35.6330°N, 80.9830°W)
Time: 01:45:54
(UTC-04:00)

Hamsat - Visible Passes

Search period start: 01 August 2015 00:00
Search period end: 11 August 2015 00:00
Orbit: 590 x 621 km, 97.6° (Epoch: 31 July)

Date Brightness Start Highest point End Pass type
(mag) Time Alt. Az. Time Alt. Az. Time Alt. Az.
02 Aug ? 05:26:08 10° ENE 05:27:25 11° E 05:28:58 10° ESE visible
03 Aug ? 05:37:46 10° NE 05:40:24 16° E 05:43:10 10° SE visible
04 Aug ? 05:49:58 10° NE 05:53:20 23° E 05:56:45 10° SSE visible
05 Aug ? 06:02:25 10° NNE 06:06:15 32° E 06:10:04 10° SSE visible
10 Aug ? 05:32:03 10° ENE 05:34:11 14° E 05:36:32 10° SE visible
